| time (UTC) | temp C | wind direction | speed KPH | gust KPH | rain 1hr cm | rain 24hr cm | rain mn cm | humidity % | barometer mb |
| 20260509162008 | 28 | 311 | 0.0 | 3.2 | 0.00 | 0.00 | 0.00 | 56 | 1034.6 |
| 20260509161504 | 27 | 246 | 1.6 | 3.2 | 0.00 | 0.00 | 0.00 | 55 | 1034.5 |
| 20260509160959 | 27 | 97 | 1.6 | 9.7 | 0.00 | 0.00 | 0.00 | 55 | 1034.5 |
| 20260509160455 | 27 | 262 | 3.2 | 4.8 | 0.00 | 0.00 | 0.00 | 54 | 1034.6 |
| 20260509155956 | 27 | 268 | 1.6 | 1.6 | 0.00 | 0.00 | 0.00 | 55 | 1034.5 |
| 20260509155452 | 27 | 261 | 0.0 | 4.8 | 0.00 | 0.00 | 0.00 | 54 | 1034.6 |
| 20260509154949 | 27 | 14 | 1.6 | 9.7 | 0.00 | 0.00 | 0.00 | 54 | 1034.4 |
| 20260509154445 | 27 | 257 | 3.2 | 3.2 | 0.00 | 0.00 | 0.00 | 54 | 1034.7 |
| 20260509153943 | 27 | 290 | 1.6 | 4.8 | 0.00 | 0.00 | 0.00 | 55 | 1034.5 |
| 20260509153439 | 27 | 331 | 4.8 | 4.8 | 0.00 | 0.00 | 0.00 | 55 | 1034.5 |
| 20260509152936 | 26 | 251 | 1.6 | 4.8 | 0.00 | 0.00 | 0.00 | 56 | 1034.3 |
| 20260509152432 | 26 | 237 | 3.2 | 4.8 | 0.00 | 0.00 | 0.00 | 55 | 1034.4 |
| 20260509151929 | 26 | 252 | 0.0 | 3.2 | 0.00 | 0.00 | 0.00 | 58 | 1034.4 |
| 20260509151425 | 26 | 252 | 3.2 | 6.4 | 0.00 | 0.00 | 0.00 | 60 | 1034.4 |
| 20260509150924 | 26 | 233 | 0.0 | 3.2 | 0.00 | 0.00 | 0.00 | 64 | 1034.5 |
| 20260509150421 | 26 | 241 | 3.2 | 3.2 | 0.00 | 0.00 | 0.00 | 64 | 1034.5 |
| 20260509145919 | 25 | 251 | 6.4 | 9.7 | 0.00 | 0.00 | 0.00 | 63 | 1034.5 |
| 20260509145419 | 25 | 323 | 0.0 | 3.2 | 0.00 | 0.00 | 0.00 | 67 | 1034.4 |
| 20260509144915 | 25 | 270 | 3.2 | 3.2 | 0.00 | 0.00 | 0.00 | 69 | 1034.6 |
| 20260509144412 | 25 | 288 | 0.0 | 1.6 | 0.00 | 0.00 | 0.00 | 68 | 1034.7 |
| 20260509143909 | 24 | 259 | 0.0 | 3.2 | 0.00 | 0.00 | 0.00 | 72 | 1034.6 |
| 20260509143407 | 24 | 246 | 1.6 | 3.2 | 0.00 | 0.00 | 0.00 | 73 | 1034.7 |
| 20260509142903 | 24 | 241 | 0.0 | 1.6 | 0.00 | 0.00 | 0.00 | 74 | 1034.7 |
| 20260509142359 | 23 | 245 | 0.0 | 6.4 | 0.00 | 0.00 | 0.00 | 74 | 1034.9 |
| 20260509141855 | 23 | 253 | 1.6 | 6.4 | 0.00 | 0.00 | 0.00 | 75 | 1034.8 |
| 20260509141352 | 23 | 258 | 1.6 | 1.6 | 0.00 | 0.00 | 0.00 | 76 | 1034.7 |
| 20260509140848 | 23 | 299 | 1.6 | 3.2 | 0.00 | 0.00 | 0.00 | 77 | 1034.7 |
| 20260509140345 | 22 | 270 | 0.0 | 4.8 | 0.00 | 0.00 | 0.00 | 78 | 1034.7 |
| 20260509135843 | 22 | 236 | 0.0 | 3.2 | 0.00 | 0.00 | 0.00 | 79 | 1034.7 |
| 20260509135341 | 22 | 241 | 0.0 | 3.2 | 0.00 | 0.00 | 0.00 | 79 | 1034.8 |
| 20260509134838 | 22 | 258 | 3.2 | 3.2 | 0.00 | 0.00 | 0.00 | 79 | 1034.7 |
| 20260509134335 | 22 | 279 | 3.2 | 4.8 | 0.00 | 0.00 | 0.00 | 80 | 1034.8 |
| 20260509133832 | 22 | 240 | 1.6 | 3.2 | 0.00 | 0.00 | 0.00 | 81 | 1034.6 |
| 20260509133328 | 22 | 280 | 1.6 | 3.2 | 0.00 | 0.00 | 0.00 | 81 | 1034.6 |
| 20260509132828 | 21 | 221 | 1.6 | 3.2 | 0.00 | 0.00 | 0.00 | 82 | 1034.4 |
| 20260509132326 | 21 | 253 | 1.6 | 3.2 | 0.00 | 0.00 | 0.00 | 82 | 1034.3 |
| 20260509131822 | 21 | 304 | 3.2 | 4.8 | 0.00 | 0.00 | 0.00 | 82 | 1034.3 |
| 20260509131319 | 21 | 253 | 1.6 | 3.2 | 0.00 | 0.00 | 0.00 | 83 | 1034.2 |
| 20260509130815 | 21 | 265 | 1.6 | 4.8 | 0.00 | 0.00 | 0.00 | 83 | 1034.1 |
| 20260509130311 | 21 | 281 | 1.6 | 1.6 | 0.00 | 0.00 | 0.00 | 84 | 1034.3 |
| 20260509125808 | 21 | 21 | 0.0 | 6.4 | 0.00 | 0.00 | 0.00 | 84 | 1034.3 |
| 20260509125307 | 21 | 274 | 1.6 | 3.2 | 0.00 | 0.00 | 0.00 | 84 | 1034.3 |
| 20260509124801 | 21 | 271 | 3.2 | 3.2 | 0.00 | 0.00 | 0.00 | 84 | 1034.3 |
| 20260509124257 | 21 | 260 | 0.0 | 3.2 | 0.00 | 0.00 | 0.00 | 85 | 1034.4 |
| 20260509123756 | 20 | 269 | 3.2 | 6.4 | 0.00 | 0.00 | 0.00 | 85 | 1034.1 |
| 20260509123253 | 20 | 263 | 1.6 | 4.8 | 0.00 | 0.00 | 0.00 | 86 | 1034.2 |
| 20260509122748 | 20 | 316 | 3.2 | 4.8 | 0.00 | 0.00 | 0.00 | 87 | 1034.2 |
| 20260509122245 | 20 | 269 | 1.6 | 6.4 | 0.00 | 0.00 | 0.00 | 89 | 1034.2 |
| 20260509121742 | 20 | 324 | 1.6 | 3.2 | 0.00 | 0.00 | 0.00 | 90 | 1034.1 |
| 20260509121239 | 20 | 275 | 1.6 | 1.6 | 0.00 | 0.00 | 0.00 | 91 | 1034.0 |
| 20260509120737 | 20 | 248 | 0.0 | 0.0 | 0.00 | 0.00 | 0.00 | 90 | 1033.8 |
| 20260509120235 | 20 | 247 | 0.0 | 0.0 | 0.00 | 0.00 | 0.00 | 89 | 1033.7 |
| 20260509115733 | 20 | 247 | 0.0 | 0.0 | 0.00 | 0.00 | 0.00 | 88 | 1033.9 |
| 20260509115229 | 20 | 250 | 0.0 | 0.0 | 0.00 | 0.00 | 0.00 | 89 | 1033.9 |
| 20260509114728 | 21 | 250 | 0.0 | 0.0 | 0.00 | 0.00 | 0.00 | 88 | 1033.9 |
| 20260509114226 | 21 | 231 | 0.0 | 1.6 | 0.00 | 0.00 | 0.00 | 86 | 1033.9 |
| 20260509113725 | 21 | 218 | 0.0 | 0.0 | 0.00 | 0.00 | 0.00 | 84 | 1033.7 |
| 20260509113221 | 21 | 213 | 0.0 | 0.0 | 0.00 | 0.00 | 0.00 | 84 | 1033.7 |
| 20260509112718 | 21 | 216 | 0.0 | 0.0 | 0.00 | 0.00 | 0.00 | 84 | 1033.6 |
| 20260509112215 | 21 | 216 | 0.0 | 0.0 | 0.00 | 0.00 | 0.00 | 84 | 1033.6 |
| 20260509111712 | 22 | 216 | 0.0 | 1.6 | 0.00 | 0.00 | 0.00 | 84 | 1033.6 |
| 20260509111209 | 22 | 186 | 1.6 | 3.2 | 0.00 | 0.00 | 0.00 | 84 | 1033.5 |
| 20260509110707 | 22 | 225 | 0.0 | 1.6 | 0.00 | 0.00 | 0.00 | 84 | 1033.7 |
| 20260509110203 | 22 | 271 | 1.6 | 1.6 | 0.00 | 0.00 | 0.00 | 84 | 1033.8 |
| 20260509105701 | 22 | 271 | 1.6 | 4.8 | 0.00 | 0.00 | 0.00 | 84 | 1033.8 |
| 20260509105158 | 22 | 264 | 0.0 | 3.2 | 0.00 | 0.00 | 0.00 | 85 | 1033.8 |
| 20260509104655 | 21 | 288 | 1.6 | 1.6 | 0.00 | 0.00 | 0.00 | 86 | 1033.7 |
| 20260509104152 | 21 | 290 | 3.2 | 3.2 | 0.00 | 0.00 | 0.00 | 87 | 1033.6 |
| 20260509103650 | 21 | 253 | 0.0 | 0.0 | 0.00 | 0.00 | 0.00 | 87 | 1033.5 |
| 20260509103148 | 21 | 258 | 1.6 | 3.2 | 0.00 | 0.00 | 0.00 | 87 | 1033.4 |
| 20260509102645 | 21 | 317 | 1.6 | 3.2 | 0.00 | 0.00 | 0.00 | 88 | 1033.6 |
| 20260509102142 | 21 | 304 | 1.6 | 3.2 | 0.00 | 0.00 | 0.00 | 88 | 1033.5 |
| 20260509101638 | 21 | 282 | 3.2 | 4.8 | 0.00 | 0.00 | 0.00 | 89 | 1033.4 |
| 20260509101135 | 21 | 236 | 3.2 | 4.8 | 0.00 | 0.00 | 0.00 | 90 | 1033.5 |
| 20260509100632 | 21 | 273 | 1.6 | 6.4 | 0.00 | 0.00 | 0.00 | 90 | 1033.1 |
| 20260509100130 | 21 | 275 | 3.2 | 9.7 | 0.00 | 0.00 | 0.00 | 91 | 1033.0 |
| 20260509095626 | 21 | 258 | 3.2 | 4.8 | 0.00 | 0.00 | 0.00 | 90 | 1031.6 |
| 20260509095124 | 21 | 202 | 1.6 | 6.4 | 0.00 | 0.00 | 0.00 | 90 | 1031.3 |
| 20260509094619 | 21 | 206 | 3.2 | 12.9 | 0.00 | 0.00 | 0.00 | 90 | 1031.0 |
| 20260509094117 | 21 | 188 | 3.2 | 17.7 | 0.00 | 0.00 | 0.00 | 90 | 1030.9 |
| 20260509093615 | 21 | 155 | 3.2 | 12.9 | 0.00 | 0.00 | 0.00 | 90 | 1031.0 |
| 20260509093112 | 21 | 153 | 6.4 | 11.3 | 0.00 | 0.00 | 0.00 | 90 | 1031.1 |
| 20260509092610 | 21 | 118 | 4.8 | 9.7 | 0.00 | 0.00 | 0.00 | 90 | 1031.0 |
| 20260509092108 | 21 | 137 | 4.8 | 12.9 | 0.00 | 0.00 | 0.00 | 90 | 1030.9 |
| 20260509091606 | 21 | 160 | 6.4 | 9.7 | 0.00 | 0.00 | 0.00 | 90 | 1030.8 |
| 20260509091102 | 21 | 204 | 3.2 | 9.7 | 0.00 | 0.00 | 0.00 | 90 | 1031.1 |
| 20260509090600 | 21 | 169 | 6.4 | 12.9 | 0.00 | 0.00 | 0.00 | 90 | 1031.2 |
| 20260509090057 | 21 | 123 | 3.2 | 9.7 | 0.00 | 0.00 | 0.00 | 90 | 1031.0 |
| 20260509085554 | 21 | 208 | 4.8 | 14.5 | 0.00 | 0.00 | 0.00 | 90 | 1031.0 |
| 20260509085050 | 21 | 179 | 4.8 | 9.7 | 0.00 | 0.00 | 0.00 | 91 | 1031.1 |
| 20260509084547 | 21 | 112 | 9.7 | 11.3 | 0.00 | 0.00 | 0.00 | 91 | 1031.0 |
| 20260509084044 | 21 | 147 | 3.2 | 9.7 | 0.00 | 0.00 | 0.00 | 91 | 1031.3 |
| 20260509083542 | 20 | 119 | 4.8 | 11.3 | 0.00 | 0.00 | 0.00 | 91 | 1031.8 |
| 20260509083038 | 20 | 168 | 3.2 | 9.7 | 0.00 | 0.00 | 0.00 | 91 | 1031.9 |
| 20260509082536 | 20 | 122 | 3.2 | 9.7 | 0.00 | 0.00 | 0.00 | 90 | 1032.1 |
| 20260509082032 | 21 | 145 | 3.2 | 11.3 | 0.00 | 0.00 | 0.00 | 90 | 1032.6 |
| 20260509081530 | 21 | 151 | 4.8 | 6.4 | 0.00 | 0.00 | 0.00 | 90 | 1032.8 |
| 20260509081026 | 21 | 167 | 3.2 | 6.4 | 0.00 | 0.00 | 0.00 | 90 | 1032.9 |
| 20260509080525 | 21 | 163 | 4.8 | 6.4 | 0.00 | 0.00 | 0.00 | 90 | 1033.3 |
| 20260509080022 | 21 | 210 | 3.2 | 4.8 | 0.00 | 0.00 | 0.00 | 90 | 1033.6 |
| 20260509075519 | 21 | 223 | 1.6 | 3.2 | 0.00 | 0.00 | 0.00 | 90 | 1033.8 |
| 20260509075017 | 21 | 233 | 0.0 | 1.6 | 0.00 | 0.00 | 0.00 | 89 | 1034.1 |
| 20260509074514 | 21 | 205 | 1.6 | 1.6 | 0.00 | 0.00 | 0.00 | 89 | 1034.1 |
| 20260509074010 | 21 | 246 | 1.6 | 3.2 | 0.00 | 0.00 | 0.00 | 90 | 1034.3 |
| 20260509073507 | 21 | 267 | 1.6 | 3.2 | 0.00 | 0.00 | 0.00 | 90 | 1034.7 |
| 20260509073003 | 21 | 333 | 0.0 | 1.6 | 0.00 | 0.00 | 0.00 | 90 | 1034.7 |
| 20260509072500 | 21 | 270 | 1.6 | 3.2 | 0.00 | 0.00 | 0.00 | 90 | 1034.9 |
| 20260509071957 | 21 | 280 | 1.6 | 1.6 | 0.00 | 0.00 | 0.00 | 90 | 1035.0 |
| 20260509071453 | 21 | 284 | 1.6 | 4.8 | 0.00 | 0.00 | 0.00 | 90 | 1035.1 |
| 20260509070951 | 21 | 295 | 3.2 | 3.2 | 0.00 | 0.00 | 0.00 | 90 | 1035.2 |
| 20260509070448 | 21 | 269 | 1.6 | 3.2 | 0.00 | 0.00 | 0.00 | 90 | 1035.4 |
| 20260509065943 | 21 | 264 | 0.0 | 3.2 | 0.00 | 0.00 | 0.00 | 91 | 1035.3 |
| 20260509065439 | 21 | 297 | 1.6 | 3.2 | 0.00 | 0.00 | 0.00 | 91 | 1035.4 |
| 20260509064937 | 21 | 304 | 0.0 | 1.6 | 0.00 | 0.00 | 0.00 | 92 | 1035.1 |
| 20260509064435 | 21 | 279 | 1.6 | 1.6 | 0.00 | 0.00 | 0.00 | 92 | 1035.3 |
| 20260509063933 | 20 | 237 | 0.0 | 0.0 | 0.00 | 0.00 | 0.00 | 92 | 1035.1 |
| 20260509063433 | 20 | 239 | 0.0 | 0.0 | 0.00 | 0.00 | 0.00 | 92 | 1034.9 |
| 20260509062930 | 20 | 239 | 0.0 | 0.0 | 0.00 | 0.00 | 0.00 | 92 | 1035.0 |
| 20260509062428 | 20 | 239 | 0.0 | 0.0 | 0.00 | 0.00 | 0.00 | 92 | 1035.0 |
| 20260509061925 | 20 | 239 | 0.0 | 0.0 | 0.00 | 0.00 | 0.00 | 92 | 1035.1 |
| 20260509061422 | 20 | 240 | 0.0 | 0.0 | 0.00 | 0.00 | 0.00 | 92 | 1035.4 |
| 20260509060919 | 20 | 233 | 0.0 | 0.0 | 0.00 | 0.00 | 0.00 | 92 | 1035.1 |
| 20260509060417 | 20 | 233 | 0.0 | 0.0 | 0.00 | 0.00 | 0.00 | 92 | 1035.1 |
| 20260509055911 | 20 | 239 | 0.0 | 0.0 | 0.00 | 0.00 | 0.00 | 92 | 1035.1 |
| 20260509055407 | 20 | 239 | 0.0 | 0.0 | 0.00 | 0.00 | 0.00 | 91 | 1035.1 |
| 20260509054904 | 20 | 240 | 0.0 | 0.0 | 0.00 | 0.00 | 0.00 | 91 | 1035.0 |
| 20260509054401 | 20 | 240 | 0.0 | 0.0 | 0.00 | 0.00 | 0.00 | 91 | 1034.8 |
| 20260509053859 | 20 | 240 | 0.0 | 0.0 | 0.00 | 0.00 | 0.00 | 90 | 1034.9 |
| 20260509053356 | 20 | 224 | 0.0 | 0.0 | 0.00 | 0.00 | 0.00 | 90 | 1034.6 |
| 20260509052854 | 21 | 216 | 0.0 | 0.0 | 0.00 | 0.00 | 0.00 | 90 | 1034.2 |
| 20260509052351 | 20 | 193 | 0.0 | 1.6 | 0.00 | 0.00 | 0.00 | 90 | 1034.1 |
| 20260509051849 | 20 | 224 | 0.0 | 0.0 | 0.00 | 0.00 | 0.00 | 88 | 1034.3 |
| 20260509051347 | 21 | 224 | 0.0 | 0.0 | 0.00 | 0.00 | 0.00 | 88 | 1034.2 |
| 20260509050843 | 21 | 224 | 0.0 | 0.0 | 0.00 | 0.00 | 0.00 | 88 | 1034.0 |
| 20260509050340 | 21 | 224 | 0.0 | 0.0 | 0.00 | 0.00 | 0.00 | 88 | 1034.1 |
| 20260509045837 | 21 | 224 | 0.0 | 0.0 | 0.00 | 0.15 | 0.15 | 88 | 1034.1 |
| 20260509045334 | 21 | 192 | 0.0 | 1.6 | 0.00 | 0.15 | 0.15 | 88 | 1034.0 |
| 20260509044831 | 21 | 221 | 0.0 | 1.6 | 0.00 | 0.15 | 0.15 | 87 | 1034.3 |
| 20260509044329 | 21 | 209 | 0.0 | 1.6 | 0.00 | 0.15 | 0.15 | 88 | 1034.1 |
| 20260509043825 | 21 | 221 | 0.0 | 0.0 | 0.00 | 0.15 | 0.15 | 88 | 1034.1 |
| 20260509043321 | 21 | 211 | 1.6 | 1.6 | 0.00 | 0.15 | 0.15 | 88 | 1034.1 |
| 20260509042817 | 21 | 202 | 0.0 | 1.6 | 0.00 | 0.15 | 0.15 | 87 | 1034.6 |
| 20260509042314 | 21 | 240 | 0.0 | 0.0 | 0.00 | 0.15 | 0.15 | 87 | 1034.6 |
| 20260509041810 | 21 | 240 | 0.0 | 0.0 | 0.00 | 0.15 | 0.15 | 86 | 1034.6 |
| 20260509041308 | 21 | 240 | 0.0 | 0.0 | 0.00 | 0.15 | 0.15 | 86 | 1034.5 |
| 20260509040806 | 22 | 242 | 0.0 | 0.0 | 0.00 | 0.15 | 0.15 | 85 | 1034.5 |
| 20260509040303 | 22 | 242 | 0.0 | 0.0 | 0.00 | 0.15 | 0.15 | 84 | 1034.1 |
| 20260509035800 | 22 | 246 | 0.0 | 0.0 | 0.00 | 0.15 | 0.15 | 84 | 1034.3 |
| 20260509035257 | 22 | 209 | 0.0 | 3.2 | 0.00 | 0.15 | 0.15 | 83 | 1033.9 |
| 20260509034753 | 22 | 157 | 1.6 | 3.2 | 0.00 | 0.15 | 0.15 | 83 | 1033.9 |
| 20260509034251 | 22 | 185 | 1.6 | 1.6 | 0.00 | 0.15 | 0.15 | 82 | 1034.0 |
| 20260509033747 | 22 | 200 | 1.6 | 6.4 | 0.00 | 0.15 | 0.15 | 82 | 1034.0 |
| 20260509033245 | 22 | 232 | 1.6 | 3.2 | 0.00 | 0.15 | 0.15 | 82 | 1033.9 |
| 20260509032741 | 22 | 164 | 1.6 | 3.2 | 0.00 | 0.15 | 0.15 | 82 | 1033.7 |
| 20260509032239 | 22 | 164 | 1.6 | 4.8 | 0.00 | 0.15 | 0.15 | 82 | 1033.6 |
| 20260509031736 | 22 | 185 | 3.2 | 4.8 | 0.00 | 0.15 | 0.15 | 82 | 1033.5 |
| 20260509031234 | 22 | 213 | 0.0 | 1.6 | 0.00 | 0.15 | 0.15 | 81 | 1033.2 |
| 20260509030731 | 22 | 121 | 3.2 | 4.8 | 0.00 | 0.15 | 0.15 | 81 | 1033.8 |
| 20260509030229 | 22 | 188 | 1.6 | 1.6 | 0.00 | 0.15 | 0.15 | 81 | 1033.7 |
| 20260509025725 | 22 | 167 | 1.6 | 1.6 | 0.00 | 0.15 | 0.15 | 81 | 1033.4 |
| 20260509025221 | 22 | 191 | 0.0 | 3.2 | 0.00 | 0.15 | 0.15 | 81 | 1033.3 |
| 20260509024717 | 23 | 207 | 3.2 | 3.2 | 0.00 | 0.15 | 0.15 | 80 | 1032.9 |
| 20260509024212 | 23 | 199 | 3.2 | 4.8 | 0.00 | 0.15 | 0.15 | 80 | 1032.6 |
| 20260509023710 | 23 | 205 | 1.6 | 4.8 | 0.00 | 0.15 | 0.15 | 80 | 1032.8 |
| 20260509023207 | 23 | 170 | 1.6 | 3.2 | 0.00 | 0.15 | 0.15 | 80 | 1033.0 |
| 20260509022703 | 23 | 209 | 1.6 | 3.2 | 0.00 | 0.15 | 0.15 | 80 | 1032.9 |
| 20260509022201 | 22 | 177 | 3.2 | 4.8 | 0.00 | 0.15 | 0.15 | 80 | 1033.0 |
| 20260509021658 | 22 | 154 | 1.6 | 3.2 | 0.00 | 0.15 | 0.15 | 81 | 1033.0 |
| 20260509021155 | 22 | 192 | 1.6 | 1.6 | 0.00 | 0.15 | 0.15 | 82 | 1033.0 |
| 20260509020653 | 22 | 224 | 1.6 | 1.6 | 0.00 | 0.15 | 0.15 | 84 | 1033.2 |
| 20260509020150 | 22 | 228 | 0.0 | 0.0 | 0.00 | 0.15 | 0.15 | 84 | 1032.9 |
| 20260509015648 | 22 | 228 | 0.0 | 0.0 | 0.00 | 0.15 | 0.15 | 84 | 1033.1 |
| 20260509015146 | 22 | 228 | 0.0 | 0.0 | 0.00 | 0.15 | 0.15 | 84 | 1033.1 |
| 20260509014642 | 22 | 219 | 0.0 | 0.0 | 0.00 | 0.15 | 0.15 | 83 | 1033.0 |
| 20260509014139 | 22 | 218 | 0.0 | 0.0 | 0.00 | 0.15 | 0.15 | 83 | 1032.9 |
| 20260509013636 | 22 | 219 | 0.0 | 0.0 | 0.00 | 0.15 | 0.15 | 83 | 1032.9 |
| 20260509013131 | 22 | 208 | 0.0 | 0.0 | 0.00 | 0.15 | 0.15 | 82 | 1033.0 |
| 20260509012628 | 22 | 208 | 0.0 | 0.0 | 0.00 | 0.15 | 0.15 | 82 | 1032.7 |
| 20260509012125 | 22 | 208 | 0.0 | 0.0 | 0.00 | 0.15 | 0.15 | 81 | 1032.7 |
| 20260509011623 | 22 | 208 | 0.0 | 0.0 | 0.00 | 0.15 | 0.15 | 81 | 1032.6 |
| 20260509011120 | 22 | 208 | 0.0 | 0.0 | 0.00 | 0.15 | 0.15 | 80 | 1032.6 |
| 20260509010618 | 23 | 208 | 0.0 | 0.0 | 0.00 | 0.15 | 0.15 | 80 | 1032.4 |
| 20260509010114 | 23 | 235 | 0.0 | 0.0 | 0.00 | 0.15 | 0.15 | 79 | 1032.5 |
| 20260509005612 | 23 | 207 | 1.6 | 3.2 | 0.00 | 0.15 | 0.15 | 79 | 1032.3 |
| 20260509005107 | 23 | 224 | 1.6 | 1.6 | 0.00 | 0.15 | 0.15 | 79 | 1032.3 |
| 20260509004604 | 23 | 177 | 3.2 | 3.2 | 0.00 | 0.15 | 0.15 | 78 | 1032.2 |
| 20260509004101 | 23 | 223 | 0.0 | 0.0 | 0.00 | 0.15 | 0.15 | 78 | 1032.3 |
| 20260509003559 | 23 | 201 | 1.6 | 4.8 | 0.00 | 0.15 | 0.15 | 77 | 1032.2 |
| 20260509003056 | 23 | 218 | 0.0 | 1.6 | 0.00 | 0.15 | 0.15 | 77 | 1032.0 |
| 20260509002554 | 23 | 196 | 1.6 | 1.6 | 0.00 | 0.15 | 0.15 | 77 | 1032.0 |
| 20260509002051 | 23 | 208 | 0.0 | 3.2 | 0.00 | 0.15 | 0.15 | 76 | 1032.1 |
| 20260509001548 | 23 | 199 | 0.0 | 3.2 | 0.00 | 0.15 | 0.15 | 76 | 1032.2 |
| 20260509001044 | 23 | 212 | 0.0 | 1.6 | 0.00 | 0.15 | 0.15 | 76 | 1032.3 |
| 20260509000543 | 23 | 176 | 1.6 | 3.2 | 0.00 | 0.15 | 0.15 | 76 | 1032.4 |
| 20260509000038 | 23 | 189 | 1.6 | 3.2 | 0.00 | 0.15 | 0.15 | 76 | 1032.4 |
| 20260508235536 | 23 | 228 | 0.0 | 1.6 | 0.00 | 0.15 | 0.15 | 77 | 1032.4 |
| 20260508235032 | 23 | 207 | 0.0 | 4.8 | 0.00 | 0.15 | 0.15 | 76 | 1032.5 |
| 20260508234530 | 23 | 172 | 3.2 | 4.8 | 0.00 | 0.15 | 0.15 | 75 | 1032.7 |
| 20260508234027 | 23 | 222 | 1.6 | 4.8 | 0.00 | 0.15 | 0.15 | 76 | 1032.5 |
| 20260508233526 | 23 | 205 | 0.0 | 3.2 | 0.00 | 0.15 | 0.15 | 76 | 1032.3 |
| 20260508233023 | 23 | 219 | 0.0 | 0.0 | 0.00 | 0.15 | 0.15 | 76 | 1032.5 |
| 20260508232520 | 23 | 208 | 0.0 | 0.0 | 0.00 | 0.15 | 0.15 | 76 | 1032.7 |
| 20260508232017 | 23 | 204 | 0.0 | 0.0 | 0.00 | 0.15 | 0.15 | 75 | 1032.6 |
| 20260508231514 | 23 | 202 | 0.0 | 3.2 | 0.00 | 0.15 | 0.15 | 75 | 1032.5 |
| 20260508231011 | 23 | 206 | 0.0 | 3.2 | 0.00 | 0.15 | 0.15 | 75 | 1032.4 |
| 20260508230508 | 23 | 238 | 0.0 | 3.2 | 0.00 | 0.15 | 0.15 | 75 | 1032.4 |
| 20260508230005 | 23 | 210 | 3.2 | 3.2 | 0.00 | 0.15 | 0.15 | 74 | 1032.5 |
| 20260508225502 | 23 | 207 | 1.6 | 3.2 | 0.00 | 0.15 | 0.15 | 75 | 1032.6 |
| 20260508224959 | 23 | 220 | 1.6 | 11.3 | 0.00 | 0.15 | 0.15 | 74 | 1032.5 |
| 20260508224456 | 23 | 204 | 1.6 | 3.2 | 0.00 | 0.15 | 0.15 | 75 | 1032.7 |
| 20260508223953 | 23 | 199 | 3.2 | 4.8 | 0.00 | 0.15 | 0.15 | 75 | 1032.4 |
| 20260508223451 | 23 | 164 | 1.6 | 1.6 | 0.00 | 0.15 | 0.15 | 76 | 1032.5 |
| 20260508222948 | 22 | 162 | 3.2 | 3.2 | 0.00 | 0.15 | 0.15 | 75 | 1032.7 |
| 20260508220321 | 22 | 169 | 1.6 | 3.2 | 0.00 | 0.15 | 0.15 | 78 | 1033.0 |
| 20260508215818 | 22 | 169 | 1.6 | 3.2 | 0.00 | 0.15 | 0.15 | 78 | 1033.0 |
| 20260508215314 | 22 | 169 | 1.6 | 3.2 | 0.00 | 0.15 | 0.15 | 78 | 1033.0 |
| 20260508214811 | 21 | 217 | 0.0 | 3.2 | 0.00 | 0.15 | 0.15 | 79 | 1033.1 |
| 20260508214308 | 21 | 217 | 0.0 | 1.6 | 0.00 | 0.15 | 0.15 | 81 | 1033.1 |
| 20260508213805 | 21 | 144 | 1.6 | 4.8 | 0.00 | 0.15 | 0.15 | 79 | 1033.2 |
| 20260508213302 | 21 | 244 | 1.6 | 3.2 | 0.00 | 0.15 | 0.15 | 81 | 1033.3 |
| 20260508212758 | 21 | 217 | 0.0 | 4.8 | 0.00 | 0.15 | 0.15 | 81 | 1033.4 |
| 20260508212254 | 21 | 184 | 0.0 | 4.8 | 0.00 | 0.15 | 0.15 | 79 | 1033.6 |
| 20260508211750 | 21 | 260 | 1.6 | 1.6 | 0.00 | 0.15 | 0.15 | 82 | 1033.9 |
| 20260508211246 | 20 | 172 | 1.6 | 3.2 | 0.00 | 0.15 | 0.15 | 84 | 1033.9 |
| 20260508210744 | 20 | 174 | 1.6 | 1.6 | 0.00 | 0.15 | 0.15 | 86 | 1033.8 |
| 20260508210241 | 20 | 226 | 0.0 | 0.0 | 0.00 | 0.15 | 0.15 | 88 | 1034.0 |
| 20260508205737 | 20 | 216 | 0.0 | 0.0 | 0.00 | 0.15 | 0.15 | 88 | 1034.3 |
| 20260508205234 | 20 | 268 | 0.0 | 1.6 | 0.48 | 0.15 | 0.15 | 88 | 1034.4 |
| 20260508204730 | 20 | 291 | 3.2 | 4.8 | 0.61 | 0.15 | 0.15 | 87 | 1034.0 |
| 20260508204227 | 20 | 219 | 3.2 | 4.8 | 0.30 | 0.08 | 0.08 | 84 | 1032.6 |
| 20260508203723 | 20 | 170 | 3.2 | 4.8 | 0.30 | 0.05 | 0.05 | 83 | 1033.0 |
| 20260508203219 | 20 | 147 | 3.2 | 6.4 | 0.13 | 0.03 | 0.03 | 81 | 1033.5 |
| 20260508202715 | 20 | 186 | 0.0 | 1.6 | 0.00 | 0.00 | 0.00 | 78 | 1034.2 |
| 20260508202213 | 21 | 158 | 4.8 | 4.8 | 0.00 | 0.00 | 0.00 | 76 | 1034.4 |
| 20260508201709 | 21 | 157 | 3.2 | 4.8 | 0.00 | 0.00 | 0.00 | 73 | 1034.5 |
| 20260508201206 | 21 | 199 | 3.2 | 6.4 | 0.00 | 0.00 | 0.00 | 70 | 1034.9 |
| 20260508200703 | 21 | 215 | 0.0 | 1.6 | 0.00 | 0.00 | 0.00 | 69 | 1035.3 |
| 20260508200159 | 22 | 123 | 3.2 | 4.8 | 0.00 | 0.00 | 0.00 | 68 | 1034.9 |
| 20260508195656 | 22 | 210 | 1.6 | 4.8 | 0.00 | 0.00 | 0.00 | 67 | 1035.3 |
| 20260508195152 | 22 | 195 | 3.2 | 6.4 | 0.00 | 0.00 | 0.00 | 67 | 1035.3 |
| 20260508194649 | 22 | 160 | 3.2 | 4.8 | 0.00 | 0.00 | 0.00 | 66 | 1035.3 |
| 20260508194146 | 22 | 182 | 4.8 | 6.4 | 0.00 | 0.00 | 0.00 | 65 | 1035.3 |
| 20260508193643 | 22 | 178 | 4.8 | 9.7 | 0.00 | 0.00 | 0.00 | 64 | 1035.2 |
| 20260508193139 | 22 | 131 | 3.2 | 6.4 | 0.00 | 0.00 | 0.00 | 65 | 1035.2 |
| 20260508192636 | 23 | 173 | 6.4 | 6.4 | 0.00 | 0.00 | 0.00 | 63 | 1034.9 |
| 20260508192134 | 23 | 180 | 3.2 | 9.7 | 0.00 | 0.00 | 0.00 | 64 | 1034.9 |
| 20260508191630 | 22 | 227 | 4.8 | 6.4 | 0.00 | 0.00 | 0.00 | 63 | 1035.2 |
| 20260508191127 | 23 | 203 | 4.8 | 9.7 | 0.00 | 0.00 | 0.00 | 63 | 1035.4 |
| 20260508190624 | 23 | 189 | 3.2 | 3.2 | 0.00 | 0.00 | 0.00 | 64 | 1035.6 |
| 20260508190120 | 23 | 170 | 1.6 | 6.4 | 0.00 | 0.00 | 0.00 | 63 | 1035.5 |
| 20260508185618 | 23 | 205 | 4.8 | 12.9 | 0.00 | 0.00 | 0.00 | 63 | 1035.5 |
| 20260508185115 | 23 | 216 | 6.4 | 6.4 | 0.00 | 0.00 | 0.00 | 63 | 1035.5 |
| 20260508184612 | 23 | 229 | 3.2 | 11.3 | 0.00 | 0.00 | 0.00 | 63 | 1035.6 |
| 20260508184109 | 23 | 186 | 8.0 | 12.9 | 0.00 | 0.00 | 0.00 | 63 | 1035.7 |
| 20260508183605 | 22 | 168 | 4.8 | 12.9 | 0.00 | 0.00 | 0.00 | 64 | 1035.6 |
| 20260508183101 | 23 | 198 | 4.8 | 9.7 | 0.00 | 0.00 | 0.00 | 65 | 1035.8 |
| 20260508182558 | 23 | 167 | 3.2 | 6.4 | 0.00 | 0.00 | 0.00 | 64 | 1035.9 |
| 20260508182055 | 23 | 150 | 9.7 | 11.3 | 0.00 | 0.00 | 0.00 | 63 | 1035.8 |
| 20260508181555 | 23 | 220 | 3.2 | 11.3 | 0.00 | 0.00 | 0.00 | 63 | 1035.9 |
| 20260508181054 | 23 | 139 | 3.2 | 9.7 | 0.00 | 0.00 | 0.00 | 62 | 1036.1 |
| 20260508180550 | 24 | 191 | 1.6 | 11.3 | 0.00 | 0.00 | 0.00 | 61 | 1036.0 |
| 20260508180046 | 24 | 238 | 0.0 | 3.2 | 0.00 | 0.00 | 0.00 | 63 | 1036.0 |
| 20260508175543 | 23 | 163 | 1.6 | 3.2 | 0.00 | 0.00 | 0.00 | 64 | 1036.1 |
| 20260508175040 | 23 | 196 | 1.6 | 3.2 | 0.00 | 0.00 | 0.00 | 65 | 1036.1 |
| 20260508174538 | 23 | 200 | 1.6 | 9.7 | 0.00 | 0.00 | 0.00 | 62 | 1036.2 |
| 20260508174034 | 22 | 210 | 3.2 | 3.2 | 0.00 | 0.00 | 0.00 | 64 | 1036.3 |
| 20260508173532 | 22 | 162 | 3.2 | 9.7 | 0.00 | 0.00 | 0.00 | 63 | 1036.9 |
| 20260508173027 | 22 | 156 | 4.8 | 6.4 | 0.00 | 0.00 | 0.00 | 64 | 1036.6 |
| 20260508172525 | 22 | 232 | 3.2 | 4.8 | 0.00 | 0.00 | 0.00 | 64 | 1036.7 |
| 20260508172021 | 22 | 198 | 1.6 | 3.2 | 0.00 | 0.00 | 0.00 | 65 | 1036.7 |
| 20260508171518 | 22 | 200 | 0.0 | 1.6 | 0.00 | 0.00 | 0.00 | 66 | 1037.0 |
| 20260508171014 | 22 | 170 | 1.6 | 4.8 | 0.00 | 0.00 | 0.00 | 65 | 1037.2 |
| 20260508170512 | 22 | 179 | 3.2 | 4.8 | 0.00 | 0.00 | 0.00 | 63 | 1037.3 |
| 20260508170009 | 23 | 200 | 0.0 | 6.4 | 0.00 | 0.00 | 0.00 | 63 | 1037.2 |
| 20260508165506 | 23 | 21 | 1.6 | 4.8 | 0.00 | 0.00 | 0.00 | 64 | 1037.2 |
| 20260508165002 | 22 | 199 | 3.2 | 4.8 | 0.00 | 0.00 | 0.00 | 64 | 1037.1 |
| 20260508164459 | 22 | 198 | 1.6 | 1.6 | 0.00 | 0.00 | 0.00 | 65 | 1037.3 |
| 20260508163956 | 22 | 173 | 0.0 | 3.2 | 0.00 | 0.00 | 0.00 | 65 | 1037.4 |
| 20260508163454 | 22 | 207 | 0.0 | 4.8 | 0.00 | 0.00 | 0.00 | 64 | 1037.4 |
| 20260508162949 | 21 | 193 | 1.6 | 4.8 | 0.00 | 0.00 | 0.00 | 65 | 1037.5 |